Location: Waco, TX
(31.5480°N, 97.1670°W)
Time: 13:51:04

ISS - Pass Details

Date: 21 March 2018
Orbit: 403 x 406 km, 51.6° (Epoch: 23 March)

Event Time Altitude Azimuth Distance (km) Brightness Sun altitude
Rises 22:24:38 0° 252° (WSW) 2,313 0.6 -34.6°
Enters shadow 22:24:51 - 253° (WSW) 2,229 0.5 -34.6°
Reaches altitude 10° 22:26:59 10° 268° (W) 1,457 - -35.0°
Maximum altitude 22:29:38 23° 322° (NW) 926 - -35.5°
Drops below altitude 10° 22:32:19 10° 17° (NNE) 1,463 - -36.0°
Sets 22:34:41 0° 33° (NNE) 2,325 - -36.5°
